Temperature
14 15 16 16 16 15 15 14 14 15 15 15 15 14 15 15 15 15 15 15 15 15 15 16 15 15 15 15 15 15 15 15 15 14 14 14 14 14 14 14 14 14 14 14
15 15 15 15 15 15 15 14 14 14 14 14 15 15 14 14 15 15 15 15 15 15 15 15 15 15 15 15 15 15 14 14 14 14 14 14 14 14 14 14 14 14 14 14
13 14 15 14 15 14 14 14 14 14 14 14 13 14 14 14 15 15 15 15 15 15 15 15 15 15 15 15 15 14 14 14 14 14 14 14 14 14 14 14 14 14 14 14
12 13 14 14 14 15 14 14 14 14 13 13 14 14 15 15 15 15 15 15 15 15 15 15 15 15 14 14 14 14 14 14 14 14 14 13 13 13 13 13 13 14 14 14
11 12 12 14 14 14 14 14 13 13 13 13 13 14 14 15 15 15 15 15 15 15 15 15 15 14 14 14 14 14 14 13 13 13 13 13 13 13 13 13 13 13 13 13
10 12 13 13 14 14 14 14 13 13 12 12 13 12 13 15 15 15 15 15 15 15 15 15 14 14 14 14 14 13 13 13 13 13 13 13 13 13 13 13 13 13 13 13
10 11 11 12 13 14 14 13 13 13 13 12 12 13 14 15 15 15 15 15 15 15 15 15 14 14 14 14 13 13 13 13 13 13 13 13 13 12 12 12 12 12 12 12
9 10 11 12 12 12 12 13 13 13 13 13 13 14 14 14 15 15 14 15 15 15 14 14 14 14 13 13 13 13 13 13 13 12 12 12 12 12 12 12 12 12 12 12
10 11 12 12 12 13 13 13 13 13 13 13 13 13 14 14 14 14 14 14 14 14 14 14 14 14 13 13 13 13 12 12 12 12 12 12 12 12 12 12 12 12 12 12
9 10 11 12 12 13 13 13 13 13 13 13 13 13 13 13 13 14 14 14 14 14 14 14 14 13 13 13 13 12 12 12 12 12 12 12 12 11 11 11 11 11 11 11
8 9 10 12 12 13 13 12 12 12 13 13 13 12 13 13 13 13 13 13 13 13 13 13 13 13 13 12 12 12 12 12 12 11 11 11 11 11 11 11 11 11 11 11
9 10 9 11 12 12 12 12 12 12 12 12 12 12 12 12 13 13 13 13 13 13 13 13 13 12 12 12 12 12 11 11 11 11 11 11 11 11 11 11 10 10 10 10
11 11 11 11 11 11 11 11 11 11 12 12 12 12 12 12 12 12 12 12 12 12 12 12 12 12 12 12 11 11 11 11 11 11 11 11 11 11 11 10 10 10 10 10
10 10 10 10 11 11 11 11 11 11 11 11 12 12 12 12 12 12 12 12 12 12 12 12 12 12 12 11 11 11 11 11 11 11 10 10 10 10 10 10 10 10 10 9
10 10 10 10 10 10 11 11 11 11 11 11 11 11 11 11 11 11 11 11 11 11 11 11 11 11 11 11 11 11 11 10 10 10 10 10 10 10 10 9 9 9 9 9
10 10 10 10 10 10 10 10 10 10 10 11 11 11 11 11 11 11 11 10 10 11 11 11 11 11 11 11 11 10 10 10 10 10 10 10 10 9 9 9 9 9 9 9
9 9 9 9 9 9 10 10 10 10 10 10 10 10 10 10 10 10 10 10 10 10 11 11 11 11 11 11 10 10 10 10 10 10 10 9 9 9 9 9 8 8 8 8
9 9 9 9 9 9 9 9 9 9 9 10 9 9 9 9 9 9 10 10 9 10 10 10 10 10 10 10 10 10 10 10 10 9 9 9 9 9 8 8 8 8 8 7
9 9 9 9 9 8 9 9 9 9 9 9 9 9 9 9 9 9 9 9 9 9 9 9 10 10 10 10 10 10 9 9 9 9 9 9 8 8 8 8 7 7 7 7
9 8 8 8 8 8 8 8 8 8 8 8 8 8 8 8 8 8 8 8 8 8 9 9 9 9 9 9 9 9 9 9 9 8 8 8 8 8 7 7 7 7 7 7
8 8 8 8 8 8 8 8 8 8 8 7 7 7 7 7 7 7 7 7 8 8 8 8 8 8 8 8 8 8 8 8 8 8 8 7 7 7 7 7 7 6 6 6
8 8 8 7 7 7 7 7 7 7 7 7 7 7 7 7 7 7 7 7 7 7 7 7 7 7 8 8 8 8 8 8 7 7 7 7 7 6 6 6 6 6 6 6
7 7 7 7 7 7 7 7 7 7 7 7 6 6 6 6 6 6 6 6 6 6 7 7 7 7 7 7 7 7 7 7 7 7 7 6 6 6 6 6 6 6 6 5
7 7 7 6 6 6 6 6 6 6 6 6 6 6 6 6 6 6 6 6 6 6 6 6 6 6 6 6 6 6 6 6 6 6 6 6 6 6 6 5 5 5 5 5
6 6 6 6 6 6 6 6 6 6 6 6 6 6 5 5 5 5 5 5 5 5 5 6 6 6 6 6 6 6 6 6 5 5 5 5 5 5 5 5 5 5 5 4
6 6 6 6 5 5 5 5 5 5 5 5 5 5 5 5 5 5 5 5 5 5 5 5 5 5 5 5 5 5 5 5 5 5 5 5 5 5 4 4 4 4 4 4
5 5 5 5 5 5 5 5 5 5 5 5 5 4 4 4 4 4 4 4 4 4 4 4 4 4 4 4 4 4 4 4 4 4 4 4 4 4 4 4 4 4 4 3
Wind_Speed
7 7 5 5 6 5 6 7 8 8 7 8 6 4 3 3 3 3 2 3 3 3 3 2 2 2 2 2 2 3 3 3 2 2 2 2 2 2 2 2 2 2 2 2
4 4 4 5 7 6 6 6 7 5 7 6 3 1 1 2 4 4 4 4 4 4 3 3 3 3 3 3 2 3 3 3 2 2 2 2 2 2 2 2 2 2 2 2
4 5 3 5 5 5 4 4 5 6 6 2 2 2 4 4 4 5 5 5 5 5 5 5 5 4 4 4 3 3 3 2 2 2 2 2 2 2 2 2 2 2 2 2
1 2 5 6 2 4 4 3 4 3 3 3 4 4 3 4 4 4 4 5 5 5 4 4 4 4 3 3 3 4 3 2 2 2 2 2 2 2 1 1 2 2 3 3
2 3 6 6 3 2 3 4 2 3 3 2 1 2 2 2 2 4 5 6 6 6 5 4 5 5 4 3 3 3 3 3 3 3 3 2 2 2 2 2 2 2 2 3
3 3 6 5 4 3 2 3 3 1 1 1 2 1 5 4 3 4 4 4 4 4 3 4 4 5 6 5 4 4 5 4 4 4 4 3 3 2 2 2 3 2 2 2
4 5 6 5 5 1 3 5 4 2 2 2 3 5 5 4 4 3 3 3 3 4 5 5 5 6 6 5 6 6 5 4 3 3 4 4 3 2 2 2 2 2 2 2
4 4 6 3 2 2 4 3 3 3 3 3 4 4 4 4 3 2 2 2 3 4 4 4 6 7 7 7 6 4 4 4 4 3 3 2 3 2 2 2 2 2 2 2
6 6 3 1 2 3 2 3 3 3 4 3 3 5 5 5 4 3 3 3 3 5 5 4 6 7 8 7 5 5 5 5 4 3 3 3 3 3 2 2 3 2 2 3
3 5 5 5 4 4 3 4 5 4 4 3 4 5 5 5 4 4 3 3 3 4 5 5 5 6 6 6 5 6 6 5 4 4 3 3 3 3 3 3 3 3 3 3
4 6 6 5 4 5 5 5 4 4 4 4 3 5 5 5 5 4 4 3 3 5 5 6 5 5 5 5 6 6 6 5 4 4 4 4 3 3 4 5 5 5 5 5
6 6 4 6 5 5 5 6 5 4 5 4 4 5 5 5 5 4 4 2 3 4 5 5 4 4 4 5 6 6 5 5 5 4 4 4 3 2 4 4 5 6 6 6
6 5 5 7 7 6 6 6 6 5 5 5 5 4 4 4 3 3 3 3 4 5 5 5 4 4 4 5 6 7 6 6 5 4 4 4 4 4 3 2 3 5 5 6
6 4 6 6 7 6 6 6 5 5 4 4 4 4 3 2 2 3 4 4 4 4 4 5 5 5 5 5 6 6 6 6 6 5 5 5 5 5 4 4 3 2 3 4
7 6 7 7 6 6 5 4 4 4 5 4 3 2 2 2 3 4 3 3 2 2 3 4 4 5 4 5 6 6 5 5 5 5 5 5 4 4 4 4 4 3 1 2
5 4 4 5 7 6 5 4 4 5 5 4 4 3 3 3 3 2 2 2 2 3 4 4 5 5 4 5 5 5 5 6 5 4 4 4 4 4 4 4 4 3 3 3
5 5 5 5 7 6 5 5 5 5 5 4 4 3 2 1 1 2 3 3 4 4 4 4 5 3 3 5 5 4 4 5 6 4 4 4 4 4 4 4 4 4 4 3
7 7 6 6 6 6 6 5 5 5 4 4 3 1 1 1 2 3 4 3 2 3 3 3 3 3 3 4 4 4 4 4 4 5 4 4 4 4 4 4 4 4 3 2
5 6 5 5 5 5 5 5 4 3 3 2 1 1 2 2 2 3 2 1 1 3 4 4 4 3 3 4 4 4 4 4 4 4 4 4 4 3 4 4 4 4 3 3
4 3 3 3 3 3 4 3 2 2 2 1 1 1 2 2 2 2 1 1 3 4 4 3 3 3 4 4 4 4 4 5 5 4 4 4 4 4 3 3 3 3 3 3
3 2 2 3 4 3 3 3 2 2 2 1 1 2 2 3 2 1 1 2 4 3 2 3 2 2 3 3 4 3 4 4 5 4 4 4 4 4 4 4 3 3 3 3
2 2 2 2 2 3 3 2 1 1 1 1 1 1 1 2 2 2 2 3 3 3 2 1 1 2 2 2 3 3 4 4 4 4 4 4 4 4 4 4 4 4 4 4
2 1 2 2 3 2 2 2 1 1 1 1 2 2 2 2 2 2 3 3 2 3 2 2 2 3 3 2 2 3 3 4 4 4 4 4 4 4 4 4 4 4 4 4
2 1 2 1 1 1 2 3 2 1 1 2 2 2 2 2 2 3 3 3 3 3 2 2 3 3 3 1 2 3 3 3 3 3 3 3 3 4 4 4 4 4 4 4
2 1 1 0 0 1 2 2 2 2 2 2 3 2 2 1 2 3 2 2 3 3 2 2 2 2 1 1 2 3 3 3 3 3 3 3 3 3 3 3 3 3 3 4
2 2 2 2 2 2 1 1 1 1 1 2 2 2 2 2 2 2 2 2 2 3 2 2 1 2 1 1 1 2 2 3 3 3 3 3 3 3 3 3 3 3 3 3
1 1 1 1 1 1 1 1 1 2 2 2 2 2 2 2 2 2 2 2 2 2 2 2 1 1 1 0 1 1 2 2 2 2 3 3 3 3 3 4 3 3 3 3
Wind_Direction
247 257 247 241 244 220 211 208 210 237 242 262 262 247 230 204 166 147 150 161 167 173 170 161 157 163 163 162 152 145 137 141 174 183 173 162 161 166 159 160 170 166 154 151
286 284 265 262 260 238 235 230 227 241 260 267 270 208 198 190 168 176 189 189 183 178 168 171 178 180 169 173 174 155 155 165 167 147 133 136 155 160 148 148 155 144 154 157
268 303 331 274 245 219 216 218 195 221 247 291 302 242 216 200 191 204 205 202 196 193 192 190 189 185 182 185 169 158 159 156 146 150 151 157 151 129 146 168 157 157 172 166
245 359 247 245 249 197 199 232 216 228 258 245 253 262 236 201 195 215 216 209 209 207 205 202 185 179 172 153 153 158 158 155 151 147 162 158 144 152 169 164 169 181 182 180
158 227 272 290 279 199 198 257 261 246 278 304 335 7 311 256 227 230 224 213 209 205 202 190 180 173 157 157 157 157 170 177 180 172 165 153 163 187 183 171 179 188 182 179
155 198 243 255 282 290 167 261 307 262 266 348 56 16 273 278 281 270 256 216 197 187 179 179 184 167 160 171 174 192 201 199 188 177 169 175 193 205 203 191 200 189 193 201
190 221 259 273 299 8 170 252 296 257 246 218 224 235 264 281 276 266 267 224 182 173 185 194 184 170 176 184 202 210 201 188 182 182 183 183 185 193 184 184 181 182 210 233
171 206 253 303 60 155 230 286 291 272 266 258 273 284 293 287 280 282 292 226 181 181 198 194 180 176 186 204 213 195 179 181 191 194 195 183 176 186 173 162 172 202 214 251
195 219 258 291 233 265 259 279 284 273 276 264 288 302 306 302 295 289 275 232 201 188 196 198 189 185 197 212 198 179 178 190 198 197 196 183 180 182 178 173 183 209 210 231
248 266 278 293 292 298 290 280 283 271 269 263 278 290 293 291 289 285 275 245 216 194 196 210 203 199 208 205 185 176 186 195 193 189 195 192 189 185 184 190 194 209 219 229
256 277 301 294 281 287 295 294 295 296 281 256 256 280 275 271 270 267 269 263 217 203 207 213 204 204 206 196 181 184 193 197 197 194 192 198 201 206 208 215 205 203 214 212
237 246 238 265 281 294 292 288 285 289 296 291 265 265 272 266 265 263 260 248 222 214 214 216 203 211 210 195 185 183 194 201 201 200 200 202 206 238 238 234 236 224 217 211
237 257 256 271 289 289 281 284 287 282 276 284 282 268 261 268 266 261 261 241 226 223 220 215 208 217 218 199 186 189 198 204 200 202 204 206 205 209 237 269 246 233 226 223
248 255 272 273 276 289 288 289 290 292 290 288 284 289 276 280 277 260 256 250 242 227 220 213 214 227 221 198 190 198 200 205 202 203 205 206 209 211 212 219 238 255 235 227
255 242 246 268 286 296 299 303 307 306 309 310 301 292 282 267 251 248 258 267 261 239 231 222 224 236 221 199 197 200 199 203 203 202 202 205 207 207 211 215 222 231 236 238
255 263 263 270 275 284 293 292 285 289 296 301 303 288 268 250 255 270 276 255 237 243 241 230 233 237 215 200 198 201 202 204 199 195 194 196 198 199 206 213 215 215 220 221
239 259 266 271 271 272 272 269 265 269 277 280 277 278 291 319 325 304 282 261 248 250 244 234 240 240 212 199 194 199 198 198 195 192 195 198 200 204 206 208 213 218 226 218
228 236 241 246 257 267 276 278 273 269 270 277 281 299 301 265 265 274 276 285 296 302 294 265 243 227 215 205 196 191 188 189 192 195 197 198 202 204 201 206 213 218 232 218
234 239 247 253 257 262 270 272 271 271 284 289 263 257 260 261 265 273 285 305 301 289 293 284 260 229 220 215 199 186 184 182 184 192 193 195 197 197 199 205 211 214 213 206
238 242 252 265 275 270 269 273 276 283 282 272 264 307 305 296 290 284 263 255 258 264 271 273 259 237 225 216 199 183 181 181 184 188 187 190 194 198 202 205 209 211 210 207
262 262 268 276 285 286 274 266 256 263 272 258 233 254 270 283 285 273 253 285 289 287 284 280 273 252 224 204 194 183 182 185 188 191 193 196 197 202 209 209 208 209 212 215
272 257 262 270 279 292 295 284 260 256 275 294 292 288 296 297 293 289 274 261 278 292 294 275 270 249 231 211 189 185 186 186 189 192 194 195 195 202 210 211 210 212 214 215
287 259 261 263 259 274 307 317 298 263 263 267 266 264 261 264 259 256 283 289 290 290 292 253 256 261 258 222 186 185 187 189 192 195 197 197 199 203 208 211 215 216 216 215
295 278 272 286 330 8 324 310 311 304 292 287 275 264 259 277 295 284 277 293 306 296 279 262 267 267 265 216 188 188 191 194 197 198 196 200 203 206 210 211 217 218 216 213
276 268 270 357 270 265 270 299 334 338 336 330 322 316 301 265 261 284 305 306 308 317 307 293 291 293 291 220 200 200 203 203 200 193 194 199 205 210 215 215 217 218 218 216
263 250 241 234 241 255 261 261 276 286 295 313 319 323 329 330 318 315 317 310 304 314 321 309 303 305 305 228 210 201 202 213 222 217 204 205 207 209 215 219 215 218 222 223
283 285 286 296 287 261 245 238 244 263 263 261 290 303 308 316 319 317 315 314 310 306 304 301 290 280 283 239 218 211 208 215 217 216 215 215 214 217 220 218 224 225 224 226
Height
1518 1515 1515 1514 1513 1514 1517 1518 1522 1517 1514 1507 1504 1503 1503 1503 1504 1505 1506 1506 1507 1509 1510 1511 1513 1515 1516 1518 1520 1521 1523 1524 1525 1527 1529 1530 1531 1532 1533 1534 1535 1536 1536 1537
1518 1513 1514 1514 1511 1511 1512 1512 1513 1512 1510 1502 1501 1501 1502 1502 1503 1504 1504 1505 1506 1508 1509 1510 1511 1513 1514 1516 1518 1519 1520 1522 1523 1525 1526 1527 1529 1530 1531 1532 1533 1533 1534 1535
1524 1517 1513 1516 1509 1508 1508 1507 1507 1510 1506 1501 1500 1500 1500 1500 1501 1502 1503 1504 1505 1506 1507 1509 1510 1511 1513 1514 1516 1517 1518 1519 1521 1522 1524 1525 1527 1528 1529 1529 1530 1531 1532 1532
1526 1521 1523 1512 1502 1501 1503 1503 1502 1501 1500 1499 1498 1497 1497 1498 1498 1499 1501 1502 1503 1504 1506 1507 1509 1510 1511 1513 1514 1515 1516 1517 1518 1520 1521 1523 1524 1525 1526 1527 1528 1529 1529 1530
1528 1526 1519 1508 1501 1501 1502 1502 1500 1500 1498 1498 1497 1496 1496 1496 1497 1498 1498 1500 1501 1502 1504 1505 1506 1508 1509 1511 1512 1513 1514 1515 1516 1517 1518 1520 1521 1522 1523 1525 1525 1526 1527 1527
1526 1524 1522 1508 1499 1497 1500 1503 1499 1498 1497 1497 1496 1500 1496 1494 1495 1496 1496 1497 1499 1500 1502 1503 1504 1506 1507 1508 1509 1510 1511 1513 1514 1515 1516 1517 1518 1519 1520 1522 1522 1523 1523 1524
1524 1523 1514 1503 1498 1497 1507 1504 1497 1496 1495 1496 1496 1495 1494 1492 1493 1493 1494 1495 1496 1497 1498 1500 1501 1502 1503 1504 1505 1507 1509 1510 1512 1513 1514 1515 1516 1517 1517 1518 1519 1519 1520 1521
1523 1522 1516 1500 1499 1501 1501 1497 1495 1494 1493 1493 1492 1492 1491 1491 1490 1490 1491 1492 1493 1494 1496 1497 1498 1499 1500 1501 1502 1504 1506 1507 1509 1510 1511 1512 1513 1513 1514 1515 1515 1516 1516 1517
1512 1510 1502 1499 1498 1497 1496 1495 1493 1492 1491 1491 1490 1489 1489 1488 1488 1488 1488 1489 1490 1491 1492 1493 1495 1496 1496 1497 1499 1501 1502 1504 1505 1507 1508 1509 1509 1510 1510 1511 1512 1512 1513 1513
1506 1501 1498 1497 1495 1494 1493 1492 1491 1490 1489 1489 1488 1487 1486 1486 1485 1486 1485 1486 1486 1487 1488 1489 1490 1492 1493 1494 1496 1497 1498 1500 1501 1503 1504 1505 1506 1507 1507 1507 1508 1508 1509 1509
1504 1499 1496 1493 1493 1492 1491 1490 1488 1487 1487 1486 1485 1483 1483 1482 1482 1482 1482 1482 1483 1483 1484 1485 1487 1488 1489 1491 1492 1493 1495 1496 1497 1499 1500 1501 1502 1503 1503 1504 1504 1505 1505 1505
1500 1495 1495 1492 1491 1490 1488 1487 1485 1484 1482 1482 1481 1480 1479 1479 1478 1478 1478 1479 1479 1480 1481 1482 1483 1484 1485 1487 1488 1489 1490 1492 1493 1495 1496 1497 1497 1498 1499 1500 1500 1501 1502 1502
1493 1492 1491 1489 1488 1487 1485 1484 1483 1482 1480 1479 1478 1477 1476 1475 1475 1475 1475 1475 1476 1476 1477 1478 1479 1480 1481 1483 1484 1485 1486 1487 1489 1490 1491 1492 1493 1493 1494 1495 1496 1496 1497 1498
1489 1489 1487 1485 1484 1483 1482 1481 1480 1478 1477 1476 1474 1473 1472 1471 1471 1471 1471 1472 1472 1473 1474 1475 1475 1476 1478 1479 1480 1481 1482 1483 1484 1485 1487 1487 1488 1489 1489 1489 1490 1490 1492 1493
1485 1484 1483 1482 1481 1480 1478 1477 1476 1474 1473 1472 1471 1470 1469 1468 1467 1468 1468 1469 1469 1470 1470 1471 1471 1472 1474 1475 1476 1477 1477 1478 1480 1481 1482 1483 1483 1484 1484 1485 1485 1486 1486 1487
1480 1479 1479 1478 1477 1476 1475 1473 1472 1471 1470 1469 1468 1466 1466 1465 1465 1465 1465 1466 1466 1466 1466 1467 1467 1469 1470 1471 1471 1472 1473 1474 1475 1476 1477 1478 1478 1479 1480 1480 1481 1481 1481 1482
1475 1474 1474 1473 1473 1472 1471 1470 1469 1467 1467 1465 1464 1463 1463 1462 1462 1462 1462 1462 1463 1463 1463 1463 1464 1465 1466 1467 1467 1468 1469 1470 1471 1471 1472 1473 1474 1474 1475 1475 1476 1476 1477 1477
1470 1469 1470 1469 1469 1468 1467 1466 1465 1464 1463 1462 1461 1460 1459 1458 1458 1458 1458 1458 1459 1459 1459 1459 1460 1461 1462 1462 1463 1463 1464 1465 1466 1467 1467 1468 1469 1470 1470 1471 1471 1472 1472 1473
1465 1465 1465 1466 1465 1465 1463 1462 1462 1461 1460 1459 1458 1457 1456 1456 1455 1455 1455 1454 1454 1454 1455 1456 1456 1456 1457 1458 1459 1459 1460 1460 1461 1462 1463 1464 1464 1465 1466 1466 1467 1468 1468 1469
1461 1461 1462 1462 1461 1460 1459 1459 1458 1457 1457 1456 1455 1454 1453 1453 1452 1452 1451 1451 1451 1451 1451 1452 1452 1452 1452 1453 1454 1454 1455 1456 1457 1457 1458 1459 1460 1461 1461 1462 1463 1463 1464 1464
1457 1458 1458 1458 1457 1457 1456 1456 1455 1454 1454 1453 1452 1451 1450 1450 1449 1449 1448 1447 1447 1448 1448 1448 1448 1448 1448 1449 1449 1450 1451 1452 1452 1453 1454 1455 1456 1456 1457 1458 1458 1459 1459 1460
1454 1454 1454 1454 1454 1454 1453 1453 1452 1452 1451 1450 1450 1449 1448 1447 1446 1445 1445 1444 1444 1444 1444 1443 1444 1444 1444 1445 1445 1446 1447 1447 1448 1449 1450 1450 1451 1452 1452 1453 1454 1454 1455 1455
1452 1452 1452 1451 1451 1451 1450 1450 1449 1448 1448 1447 1447 1446 1445 1444 1443 1442 1441 1441 1441 1440 1440 1440 1440 1440 1440 1441 1441 1442 1442 1443 1444 1444 1445 1446 1446 1447 1448 1448 1449 1449 1450 1450
1450 1450 1449 1449 1449 1448 1447 1447 1447 1446 1445 1445 1444 1444 1443 1442 1441 1440 1439 1438 1437 1437 1436 1436 1436 1436 1436 1436 1437 1437 1438 1439 1439 1440 1440 1441 1442 1443 1443 1444 1444 1444 1445 1445
1448 1447 1447 1446 1446 1445 1445 1444 1444 1443 1443 1442 1442 1441 1440 1440 1439 1438 1437 1435 1435 1434 1433 1432 1432 1432 1431 1431 1432 1432 1433 1434 1435 1435 1436 1437 1437 1438 1438 1439 1439 1440 1440 1440
1445 1445 1444 1444 1443 1443 1442 1442 1441 1440 1440 1439 1438 1438 1438 1437 1436 1435 1434 1433 1432 1431 1430 1429 1429 1428 1428 1427 1427 1428 1429 1430 1430 1431 1431 1432 1432 1433 1433 1434 1434 1434 1435 1435
1442 1442 1441 1441 1440 1440 1440 1439 1438 1437 1437 1436 1435 1435 1434 1434 1433 1432 1431 1430 1429 1428 1427 1426 1426 1425 1425 1425 1425 1425 1425 1426 1426 1427 1427 1427 1428 1428 1428 1429 1429 1429 1429 1429